| time (UTC) | temp F | wind direction | speed MPH | gust MPH | rain 1hr in | rain 24hr in | rain mn in | humidity % | barometer mb |
| 20260506210047 | 63 | 25 | 2.0 | 7.0 | 0.00 | 0.00 | 0.00 | 83 | 1012.7 |
| 20260506204545 | 63 | 330 | 2.0 | 7.0 | 0.00 | 0.00 | 0.00 | 83 | 1012.6 |
| 20260506203043 | 64 | 323 | 1.0 | 8.0 | 0.00 | 0.00 | 0.00 | 82 | 1012.8 |
| 20260506201545 | 64 | 41 | 2.0 | 10.0 | 0.00 | 0.00 | 0.00 | 83 | 1012.9 |
| 20260506200051 | 65 | 312 | 2.0 | 7.0 | 0.00 | 0.00 | 0.00 | 82 | 1012.7 |
| 20260506194553 | 65 | 22 | 4.0 | 9.0 | 0.00 | 0.00 | 0.00 | 82 | 1012.7 |
| 20260506193052 | 66 | 13 | 3.0 | 10.0 | 0.00 | 0.00 | 0.00 | 81 | 1012.7 |
| 20260506191548 | 66 | 289 | 6.0 | 13.0 | 0.00 | 0.00 | 0.00 | 82 | 1012.4 |
| 20260506190045 | 66 | 288 | 6.0 | 12.0 | 0.00 | 0.00 | 0.00 | 81 | 1012.6 |
| 20260506184554 | 70 | 4 | 5.0 | 13.0 | 0.00 | 0.00 | 0.00 | 78 | 1012.6 |
| 20260506183047 | 74 | 18 | 4.0 | 9.0 | 0.00 | 0.00 | 0.00 | 77 | 1012.2 |
| 20260506181600 | 76 | 32 | 1.0 | 6.0 | 0.00 | 0.00 | 0.00 | 73 | 1012.0 |
| 20260506180050 | 76 | 314 | 2.0 | 7.0 | 0.00 | 0.00 | 0.00 | 72 | 1011.6 |
| 20260506174549 | 75 | 56 | 2.0 | 7.0 | 0.00 | 0.00 | 0.00 | 73 | 1011.8 |
| 20260506173117 | 75 | 340 | 2.0 | 6.0 | 0.00 | 0.00 | 0.00 | 74 | 1011.6 |
| 20260506171556 | 73 | 77 | 2.0 | 8.0 | 0.00 | 0.00 | 0.00 | 76 | 1011.5 |
| 20260506170104 | 72 | 59 | 1.0 | 6.0 | 0.00 | 0.00 | 0.00 | 75 | 1011.8 |
| 20260506164548 | 71 | 58 | 2.0 | 8.0 | 0.00 | 0.00 | 0.00 | 76 | 1011.8 |
| 20260506163047 | 69 | 21 | 4.0 | 11.0 | 0.00 | 0.00 | 0.00 | 78 | 1012.0 |
| 20260506161550 | 67 | 62 | 2.0 | 11.0 | 0.00 | 0.00 | 0.00 | 85 | 1012.0 |
| 20260506160059 | 66 | 305 | 4.0 | 11.0 | 0.00 | 0.00 | 0.00 | 86 | 1012.7 |
| 20260506154551 | 66 | 309 | 3.0 | 8.0 | 0.00 | 0.00 | 0.00 | 86 | 1015.3 |
| 20260506153053 | 67 | 15 | 4.0 | 13.0 | 0.00 | 0.00 | 0.00 | 84 | 1011.8 |
| 20260506151551 | 77 | 297 | 1.0 | 4.0 | 0.00 | 0.00 | 0.00 | 84 | 1011.6 |
| 20260506150050 | 77 | 0 | 0.0 | 1.0 | 0.00 | 0.00 | 0.00 | 84 | 1011.0 |
| 20260506144550 | 77 | 0 | 0.0 | 3.0 | 0.00 | 0.00 | 0.00 | 85 | 1010.7 |
| 20260506143051 | 77 | 162 | 0.0 | 3.0 | 0.00 | 0.00 | 0.00 | 86 | 1010.3 |
| 20260506141545 | 76 | 98 | 1.0 | 5.0 | 0.00 | 0.00 | 0.00 | 88 | 1010.0 |
| 20260506140049 | 75 | 127 | 0.0 | 2.0 | 0.00 | 0.00 | 0.00 | 91 | 1010.1 |
| 20260506134548 | 75 | 0 | 0.0 | 0.0 | 0.00 | 0.00 | 0.00 | 93 | 1010.1 |
| 20260506133048 | 74 | 0 | 0.0 | 1.0 | 0.00 | 0.00 | 0.00 | 93 | 1009.6 |
| 20260506131557 | 74 | 0 | 0.0 | 1.0 | 0.00 | 0.00 | 0.00 | 94 | 1009.5 |
| 20260506130055 | 74 | 0 | 0.0 | 0.0 | 0.00 | 0.00 | 0.00 | 94 | 1009.3 |
| 20260506124552 | 73 | 0 | 0.0 | 0.0 | 0.00 | 0.00 | 0.00 | 94 | 1009.2 |
| 20260506123048 | 73 | 0 | 0.0 | 0.0 | 0.00 | 0.00 | 0.00 | 93 | 1009.0 |
| 20260506121544 | 73 | 0 | 0.0 | 0.0 | 0.00 | 0.00 | 0.00 | 93 | 1009.0 |
| 20260506120050 | 73 | 0 | 0.0 | 0.0 | 0.00 | 0.00 | 0.00 | 93 | 1009.2 |
| 20260506114547 | 73 | 0 | 0.0 | 0.0 | 0.00 | 0.00 | 0.00 | 92 | 1009.2 |
| 20260506113049 | 74 | 0 | 0.0 | 1.0 | 0.00 | 0.00 | 0.00 | 91 | 1009.1 |
| 20260506111552 | 74 | 0 | 0.0 | 0.0 | 0.00 | 0.00 | 0.00 | 91 | 1009.2 |
| 20260506110047 | 74 | 0 | 0.0 | 0.0 | 0.00 | 0.00 | 0.00 | 90 | 1009.1 |
| 20260506104550 | 74 | 0 | 0.0 | 1.0 | 0.00 | 0.00 | 0.00 | 89 | 1008.9 |
| 20260506103047 | 75 | 0 | 0.0 | 2.0 | 0.00 | 0.00 | 0.00 | 88 | 1008.8 |
| 20260506101551 | 75 | 0 | 0.0 | 2.0 | 0.00 | 0.00 | 0.00 | 88 | 1008.7 |
| 20260506100051 | 75 | 0 | 0.0 | 5.0 | 0.00 | 0.00 | 0.00 | 88 | 1008.3 |
| 20260506094559 | 75 | 0 | 0.0 | 5.0 | 0.00 | 0.00 | 0.00 | 87 | 1008.2 |
| 20260506093052 | 75 | 0 | 0.0 | 3.0 | 0.00 | 0.00 | 0.00 | 88 | 1008.2 |
| 20260506091551 | 75 | 0 | 0.0 | 2.0 | 0.00 | 0.00 | 0.00 | 88 | 1008.0 |
| 20260506090046 | 75 | 0 | 0.0 | 6.0 | 0.00 | 0.00 | 0.00 | 88 | 1007.9 |
| 20260506084557 | 75 | 184 | 0.0 | 6.0 | 0.00 | 0.00 | 0.00 | 88 | 1007.6 |
| 20260506083058 | 75 | 148 | 1.0 | 4.0 | 0.00 | 0.00 | 0.00 | 88 | 1007.8 |
| 20260506081551 | 75 | 240 | 0.0 | 5.0 | 0.00 | 0.00 | 0.00 | 87 | 1007.8 |
| 20260506073054 | 75 | 122 | 1.0 | 9.0 | 0.00 | 0.00 | 0.00 | 87 | 1008.0 |
| 20260506071555 | 75 | 150 | 0.0 | 7.0 | 0.00 | 0.00 | 0.00 | 87 | 1008.1 |
| 20260506061545 | 75 | 118 | 1.0 | 9.0 | 0.00 | 0.00 | 0.00 | 87 | 1008.1 |
| 20260506044544 | 75 | 89 | 1.0 | 7.0 | 0.00 | 0.00 | 0.00 | 88 | 1008.3 |
| 20260506043044 | 75 | 112 | 0.0 | 7.0 | 0.00 | 0.00 | 0.00 | 87 | 1008.2 |
| 20260506041550 | 76 | 159 | 0.0 | 2.0 | 0.00 | 0.00 | 0.00 | 87 | 1008.2 |
| 20260506040049 | 76 | 154 | 1.0 | 8.0 | 0.00 | 0.00 | 0.00 | 86 | 1007.9 |
| 20260506034547 | 76 | 126 | 1.0 | 4.0 | 0.00 | 0.00 | 0.00 | 86 | 1007.7 |
| 20260506033046 | 77 | 160 | 1.0 | 6.0 | 0.00 | 0.00 | 0.00 | 85 | 1007.5 |
| 20260506031556 | 77 | 208 | 2.0 | 7.0 | 0.00 | 0.00 | 0.00 | 84 | 1007.5 |
| 20260506030047 | 77 | 101 | 2.0 | 9.0 | 0.00 | 0.00 | 0.00 | 83 | 1007.3 |
| 20260506024558 | 77 | 155 | 0.0 | 4.0 | 0.00 | 0.00 | 0.00 | 82 | 1007.2 |
| 20260506023050 | 77 | 0 | 0.0 | 3.0 | 0.00 | 0.00 | 0.00 | 82 | 1006.9 |
| 20260506021547 | 78 | 0 | 0.0 | 4.0 | 0.00 | 0.00 | 0.00 | 81 | 1006.7 |
| 20260506020045 | 78 | 0 | 1.0 | 4.0 | 0.00 | 0.00 | 0.00 | 80 | 1006.4 |
| 20260506014547 | 78 | 120 | 0.0 | 4.0 | 0.00 | 0.00 | 0.00 | 79 | 1006.0 |
| 20260506013041 | 79 | 122 | 0.0 | 2.0 | 0.00 | 0.00 | 0.00 | 78 | 1006.0 |
| 20260506011547 | 80 | 124 | 0.0 | 5.0 | 0.00 | 0.00 | 0.00 | 76 | 1006.0 |
| 20260506010051 | 81 | 0 | 0.0 | 4.0 | 0.00 | 0.00 | 0.00 | 74 | 1006.1 |
| 20260506004543 | 82 | 139 | 0.0 | 3.0 | 0.00 | 0.00 | 0.00 | 72 | 1006.0 |
| 20260506003044 | 83 | 0 | 0.0 | 6.0 | 0.00 | 0.00 | 0.00 | 70 | 1006.2 |
| 20260506001550 | 83 | 163 | 0.0 | 3.0 | 0.00 | 0.00 | 0.00 | 70 | 1006.1 |
| 20260506000048 | 84 | 150 | 0.0 | 3.0 | 0.00 | 0.00 | 0.00 | 68 | 1006.1 |
| 20260505234555 | 84 | 153 | 0.0 | 5.0 | 0.00 | 0.00 | 0.00 | 67 | 1006.0 |
| 20260505233049 | 84 | 0 | 1.0 | 5.0 | 0.00 | 0.00 | 0.00 | 67 | 1005.8 |
| 20260505231559 | 85 | 117 | 1.0 | 7.0 | 0.00 | 0.00 | 0.00 | 66 | 1005.8 |
| 20260505230057 | 86 | 0 | 2.0 | 7.0 | 0.00 | 0.00 | 0.00 | 65 | 1005.8 |
| 20260505224552 | 86 | 155 | 2.0 | 7.0 | 0.00 | 0.00 | 0.00 | 64 | 1005.7 |
| 20260505223047 | 87 | 194 | 2.0 | 8.0 | 0.00 | 0.00 | 0.00 | 63 | 1005.6 |
| 20260505221547 | 87 | 235 | 1.0 | 9.0 | 0.00 | 0.00 | 0.00 | 63 | 1005.5 |
| 20260505220048 | 88 | 224 | 1.0 | 7.0 | 0.00 | 0.00 | 0.00 | 60 | 1005.6 |
| 20260505214545 | 88 | 214 | 2.0 | 8.0 | 0.00 | 0.00 | 0.00 | 60 | 1005.7 |
| 20260505213052 | 88 | 186 | 3.0 | 10.0 | 0.00 | 0.00 | 0.00 | 59 | 1006.2 |
| 20260505211551 | 89 | 150 | 2.0 | 8.0 | 0.00 | 0.00 | 0.00 | 60 | 1006.2 |